Sample Number (10 samples per second),UNIX Timestamp (Milliseconds since 1970-01-01),Barometric (psi),IAT (c),Throttle (%),STFT (%),LTFT (%),Timing (o),Speed (km/h),RPM (rpm),O2 ECU (l),Coolant (c),Boost (psi),Boost ECU (psi),Manifold (psi),Manifold ECU (psi),Fuel (psi),Fuel ECU (psi),O2 (l),Avg Boost (psi)
0,1629206829746,13.535148,19.0,16.47,0.0,1.56,-13.0,0.0,1021.25,1.2,27.0,13.491892,13.491892,8.994595,8.994595,1112.0,1108.0,1.1999999,0.0
2142,1629207129358,13.535148,17.0,26.67,5.47,2.34,27.5,72.0,3408.5,0.99,90.0,13.286487,13.167568,12.940541,12.940541,2180.0,2138.0,0.98999995,0.0
2143,1629207129498,13.535148,17.0,47.06,6.25,2.34,21.5,73.0,3439.0,1.02,90.0,13.491892,13.794595,13.837838,14.172974,2416.0,2345.0,1.02,0.36756757
2144,1629207129638,13.535148,17.0,70.59,7.81,2.34,21.0,73.0,3436.75,1.02,90.0,13.805406,13.7405405,14.713514,14.540541,2511.0,2257.0,0.91999996,1.0378379
2145,1629207129780,13.535148,17.0,85.1,7.03,3.12,19.5,74.0,3454.25,0.98,92.0,14.356757,14.032433,15.848649,15.481081,2738.0,2431.0,0.78999996,2.1621623
2146,1629207129918,13.535148,17.0,86.67,3.91,3.12,17.0,75.0,3508.0,0.96,92.0,16.616217,16.11892,17.027027,16.24865,2934.0,2589.0,0.81,4.4864864
2147,1629207130058,13.535148,17.0,86.67,3.91,3.12,15.5,76.0,3538.5,0.97,92.0,20.032433,18.281082,20.594595,19.07027,3036.0,2596.0,0.83,7.027027
2148,1629207130196,13.535148,17.0,86.67,3.91,3.12,12.5,77.0,3620.5,0.99,92.0,24.086487,21.610811,24.205406,21.71892,3267.0,2732.0,0.84999996,11.05946
2149,1629207130338,13.535148,17.0,86.67,3.91,3.12,9.5,78.0,3674.0,1.01,92.0,28.216217,24.183784,28.551352,24.756758,3253.0,2626.0,0.84999996,15.643244
2150,1629207130477,13.535148,17.0,86.67,4.69,3.12,0.0,80.0,3777.25,1.02,92.0,33.816216,29.827028,35.98919,32.0,3174.0,2573.0,0.87,20.508108
2151,1629207130617,13.535148,17.0,86.67,7.03,3.12,-3.5,81.0,3871.5,1.03,92.0,33.383785,30.172974,34.454056,32.345947,3163.0,2534.0,0.85999995,21.18919
2152,1629207130759,13.535148,17.0,86.67,7.03,3.12,-4.0,85.0,3951.5,1.01,92.0,37.43784,33.44865,34.23784,30.24865,3154.0,2543.0,0.85999995,21.18919
2153,1629207130899,13.535148,18.0,86.67,7.03,3.12,-4.0,87.0,4049.0,1.0,92.0,35.286488,31.286488,34.36757,30.37838,3207.0,2572.0,0.83,21.654055
2154,1629207131038,13.535148,18.0,86.67,7.81,3.12,-5.0,89.0,4162.25,0.97,92.0,35.264866,31.805407,34.075676,30.086487,3322.0,2702.0,0.79999995,22.54054
2155,1629207131178,13.535148,18.0,86.67,6.25,3.12,-4.0,90.0,4261.0,0.98,92.0,36.82162,32.35676,36.25946,32.02162,3316.0,2709.0,0.81,22.681082
2156,1629207131317,13.535148,18.0,86.67,4.69,3.12,-4.5,92.0,4310.5,0.98,92.0,36.205406,32.410812,35.286488,31.535135,3175.0,2583.0,0.81,22.162163
2157,1629207131458,13.535148,18.0,86.67,4.69,3.12,-5.0,95.0,4424.5,0.98,92.0,36.691895,33.156757,35.600002,31.827028,3349.0,2785.0,0.79999995,23.513514
2158,1629207131597,13.535148,18.0,86.67,3.91,3.12,-5.0,96.0,4505.5,0.98,92.0,36.205406,32.51892,36.194595,32.735134,3325.0,2751.0,0.79999995,22.464865
2159,1629207131739,13.535148,17.0,86.67,3.91,3.12,-4.5,98.0,4597.5,0.98,92.0,34.670273,32.02162,35.45946,31.329731,3288.0,2706.0,0.81,21.58919
2160,1629207131879,13.535148,17.0,86.67,3.91,3.12,-3.0,100.0,4666.0,1.0,92.0,34.691895,31.17838,33.848648,29.935137,3376.0,2749.0,0.83,20.064865
2161,1629207132019,13.535148,17.0,86.67,4.69,3.12,-1.0,102.0,4788.75,1.01,92.0,32.345947,28.356758,33.416218,29.016216,3254.0,2578.0,0.83,19.416216
2162,1629207132159,13.535148,17.0,86.67,5.47,3.12,-0.5,104.0,4872.0,1.0,92.0,33.56757,29.578379,32.864864,28.875677,3433.0,2741.0,0.81,19.275677
2163,1629207132300,13.535148,18.0,86.67,5.47,3.12,0.5,106.0,4962.25,0.99,92.0,32.897297,29.210812,33.21081,29.221622,3279.0,2607.0,0.79999995,19.037838
2164,1629207132439,13.535148,18.0,86.67,4.69,3.12,1.0,107.0,5039.25,0.99,92.0,31.827028,27.902704,31.610811,27.643244,3221.0,2544.0,0.81,18.497297
2165,1629207132577,13.535148,18.0,86.67,5.47,3.12,2.0,110.0,5133.5,0.99,92.0,31.740541,27.762163,31.913515,27.794596,3335.0,2648.0,0.81,17.891891
2166,1629207132719,13.535148,18.0,86.67,5.47,3.12,2.0,111.0,5189.0,1.01,92.0,30.475676,26.486486,31.545946,27.037838,3312.0,2618.0,0.82,17.891891
2167,1629207132858,13.535148,18.0,86.67,6.25,3.12,3.0,112.0,5262.25,1.0,94.0,31.556757,27.567568,31.221622,27.697298,3367.0,2657.0,0.82,17.686487
2168,1629207132997,13.535148,18.0,86.67,7.03,3.12,3.5,115.0,5360.75,1.0,94.0,30.994595,27.005405,31.924326,28.021622,3343.0,2666.0,0.82,17.362162
2169,1629207133140,13.535148,18.0,86.67,7.03,3.12,4.5,116.0,5424.5,1.0,94.0,31.102703,27.113514,29.243244,26.38919,3299.0,2593.0,0.82,16.897297
2170,1629207133279,13.535148,19.0,86.67,7.81,3.12,5.5,118.0,5510.0,1.0,94.0,29.340542,25.416216,29.58919,25.72973,3310.0,2584.0,0.81,16.627028
2171,1629207133419,13.535148,19.0,86.67,7.81,3.12,5.5,119.0,5573.0,1.0,94.0,29.881083,26.0,30.140541,26.313515,3292.0,2579.0,0.81,15.956758
2172,1629207133559,13.535148,19.0,86.67,8.59,3.12,5.5,120.0,5620.0,0.99,94.0,29.578379,26.064865,28.843245,25.437838,3412.0,2748.0,0.79999995,15.945947
2173,1629207133698,13.535148,19.0,86.67,8.59,3.12,5.5,122.0,5712.75,0.98,94.0,29.675676,26.043243,30.951351,26.583784,3349.0,2650.0,0.79999995,15.675676
2174,1629207133842,13.535148,20.0,86.67,7.81,3.12,3.0,123.0,5741.5,0.98,94.0,30.983784,27.329731,29.31892,25.913515,3427.0,2708.0,0.77,15.967568
2175,1629207133978,13.535148,20.0,86.67,7.81,3.12,-15.0,124.0,5126.75,1.12,94.0,30.194595,26.237839,29.881083,25.98919,3317.0,2678.0,0.93,15.837838
2176,1629207134117,13.535148,20.0,86.67,0.0,3.12,-14.0,125.0,4150.75,2.0,94.0,33.243244,29.254055,30.37838,26.410812,3273.0,2668.0,0.96999997,18.043243
2177,1629207134258,13.535148,20.0,86.67,0.0,3.12,-1.0,127.0,4030.75,0.96,94.0,35.643246,30.756758,32.854053,28.864866,3185.0,2639.0,0.79999995,20.897297
2178,1629207134398,13.535148,21.0,86.67,0.0,3.12,-3.0,128.0,4075.0,0.93,94.0,32.864864,28.875677,32.94054,28.951351,3324.0,2747.0,0.72999996,20.508108
2179,1629207134537,13.535148,21.0,86.67,1.56,3.12,-3.5,129.0,4108.0,0.92,94.0,27.675676,24.400002,25.156757,22.4,3310.0,2885.0,0.83,10.432433
2180,1629207134680,13.535148,21.0,43.53,0.0,3.12,4.0,130.0,4053.75,0.85,94.0,24.01081,21.405405,10.670271,10.670271,3049.0,3029.0,0.78,0.0
2181,1629207134820,13.535148,22.0,15.29,-3.91,3.12,13.5,129.0,4018.5,0.74,94.0,20.345947,18.65946,6.0324326,6.0324326,2848.0,2854.0,0.75,0.0
2182,1629207134959,13.535148,22.0,15.69,-3.91,3.12,16.0,129.0,4045.0,0.89,94.0,17.805407,16.77838,5.5135136,5.5135136,2693.0,2688.0,0.93,0.0
2183,1629207135099,13.535148,22.0,16.47,-1.56,3.12,17.0,129.0,4047.75,0.97,94.0,16.205406,15.524324,5.45946,5.5351353,2500.0,2477.0,1.02,0.0
2184,1629207135237,13.535148,21.0,16.86,2.34,3.12,10.0,128.0,4026.75,1.03,94.0,15.394595,14.91892,5.437838,5.437838,2672.0,2648.0,1.03,0.0
2185,1629207135378,13.535148,21.0,17.25,0.0,3.12,7.0,128.0,4001.0,1.17,94.0,14.908109,14.65946,5.5027027,5.481081,2804.0,2779.0,1.99,0.0